sat.trackr.live / text

‹ back to catalog

STARLINK-32298

NORAD 61525 · 2024-183S

PAYLOAD ACTIVE UNKNOWN

§ Identity

Operator
Country
US
Launch date
2024-10-15
Launch site
AFETR
Launch vehicle
Mass (kg)
RCS (m²)

Purposes: comms

External: N2YO · Heavens-Above · Gunter

§ Orbital elements

Epoch: 2026-05-25T03:36:24.619680Z

Period
94.10 min
Inclination
53.1600°
Eccentricity
0.0001278
Mean motion
15.30211102 rev/d
Perigee alt
474.3 km
Apogee alt
476.1 km
Semi-major
6,853.3 km
B*
8.3187e-5
RAAN
146.9473°
Arg perigee
91.9045°
Mean anomaly
268.2102°
Rev number
9,136

§ Raw data

STARLINK-322981 61525U 24183S   26145.15028495  .00002106  00000+0  83187-4 0  99982 61525  53.1600 146.9473 0001278  91.9045 268.2102 15.30211102 91362

JSON: /api/v1/satellites/61525 · /tle

For live sub-satellite position, see the globe view (requires WebGL).

§ Visibility from observer

Set your observer location to see the next 7 days of passes ≥ 10°. The values pass through the URL so the page stays shareable.

No JS? Fill the form by hand. The geolocation button needs JavaScript.